Flag for U.S.A. Weather past 2 weeks in Annapolis, Maryland, U.S.A.

Now
76 °F

Clear.


Feels Like: 77 °F
Forecast: 72 / 89 °F
Wind: 5 mph from Northwest

Location: Annapolis - United States Naval Academy

Current Time: Sep 3, 2015 at 4:03:10 AM

Latest Report: Sep 3, 2015 at 2:54 AM


Visibility: 8 mi

Pressure: 29.89 "Hg

Humidity: 82%

Dew point: 70 °F

Location of AnnapolisLocation

Historic Weather in Annapolis — Graph

°F

Annapolis temperature yesterday

Maximum temperature yesterday: 86 °F (at 12:54 PM)
Minimum temperature yesterday: 76 °F (at 12:54 AM)
Average temperature yesterday: 80 °F

Past Weeks' High & Low Weather Summary

 TemperatureHumidityPressure
High86 °F (Sep 1, 12:54 PM)94% (Sep 2, 12:54 AM)30.22 "Hg (Sep 2, 12:54 AM)
Low65 °F (Aug 27, 5:54 AM)38% (Aug 22, 3:54 PM)29.82 "Hg (Aug 24, 6:54 PM)
Average76 °F68%30.03 "Hg
* Reported Aug 19 2:54 AM — Sep 3 2:54 AM, Annapolis, Weather by CustomWeather, © 2015

Note: Actual official high and low records may vary slightly from our data, if they occured in-between our weather recording intervals... More about our weather records

Advertising

Annapolis weather history for previous 24 hours

 ConditionsComfort  
Time TempWeatherWind HumidityBarometerVisibility
2:54 AM
Thu, Sep 3
76 °FClear.5 mph82%29.89 "Hg8 mi
1:54 AM76 °FClear.5 mph85%29.91 "Hg8 mi
12:54 AM77 °FClear.5 mph82%29.92 "Hg7 mi
11:54 PM
Wed, Sep 2
76 °FClear.3 mph85%29.93 "Hg6 mi
10:54 PM77 °FClear.No wind85%29.93 "Hg7 mi
9:54 PM78 °FClear.No wind84%29.92 "Hg4 mi
8:54 PM79 °FClear.No wind77%29.93 "Hg7 mi
7:54 PM82 °FSunny.No wind70%29.92 "Hg8 mi
6:54 PM84 °FSunny.No wind67%29.90 "Hg7 mi
5:54 PM84 °FPassing clouds.5 mph70%29.93 "Hg7 mi
4:54 PM86 °FSunny.9 mph63%29.94 "Hg7 mi
3:54 PM84 °FSunny.10 mph70%29.94 "Hg7 mi
2:54 PM84 °FSunny.8 mph72%29.96 "Hg6 mi
1:54 PM83 °FSunny.7 mph77%29.99 "Hg6 mi
12:54 PM86 °FSunny.No wind59%30.01 "Hg7 mi
11:54 AM83 °FSunny.5 mph70%30.03 "Hg4 mi
10:54 AM82 °FHaze.No wind79%30.03 "Hg5 mi
9:54 AM80 °FSunny.3 mph85%30.03 "Hg4 mi
8:54 AM79 °FFog.No wind88%30.04 "Hg3 mi
7:54 AM77 °FFog.3 mph94%30.04 "Hg2 mi
6:54 AM76 °FFog.No wind94%30.03 "Hg3 mi
5:54 AM76 °FFog.No wind94%30.02 "Hg4 mi
4:54 AM77 °FFog.3 mph94%30.01 "Hg5 mi
Weather by CustomWeather, © 2015

See weather overviewHow to use our weather pages